Location: Cahas Mountain Overlook
(37.0833°N, 80.1000°W)
Time: 20:59:28
(UTC-04:00)

Explorer 7 - Visible Passes

Search period start: 17 August 2022 00:00
Search period end: 27 August 2022 00:00
Orbit: 482 x 668 km, 50.3° (Epoch: 16 August)

Date Brightness Start Highest point End Pass type
(mag) Time Alt. Az. Time Alt. Az. Time Alt. Az.
17 Aug 7.6 04:38:58 35° SE 04:39:02 35° SE 04:42:28 10° ENE visible
18 Aug 6.7 04:41:38 63° SE 04:41:38 63° SE 04:45:17 10° ENE visible
19 Aug 6.5 04:44:14 76° NNW 04:44:14 76° NNW 04:47:57 10° NE visible
20 Aug 7.1 04:46:48 45° NW 04:46:52 46° NNW 04:50:30 10° NE visible
21 Aug 7.8 04:49:19 30° NW 04:49:36 30° NNW 04:52:58 10° NE visible
22 Aug 8.3 04:51:48 21° NW 04:52:24 22° NNW 04:55:24 10° NNE visible
23 Aug 10.0 03:18:05 10° NE 03:18:05 10° NE 03:18:10 10° NE visible
23 Aug 8.7 04:54:15 15° NW 04:55:15 17° NNW 04:57:47 10° NNE visible
24 Aug 9.9 03:20:31 11° NE 03:20:31 11° NE 03:20:42 10° NE visible
24 Aug 9.1 04:56:41 12° NW 04:58:08 14° NNW 05:00:09 10° NNE visible
25 Aug 9.9 03:22:57 11° NNE 03:22:57 11° NNE 03:23:09 10° NE visible
25 Aug 9.3 04:59:35 10° NNW 05:01:04 12° N 05:02:34 10° NNE visible
26 Aug 9.9 03:25:23 11° NNE 03:25:23 11° NNE 03:25:33 10° NNE visible
26 Aug 9.4 05:02:55 10° NNW 05:04:02 11° N 05:05:07 10° NNE visible
